(68779) Schoninger = 1998 KH8 = 2002 FA3

Discovered at Klet on 2002-03-18 by KLENOT.
(68779) Schöninger = 2002 FA3

Schöninger is the name used for Klet mountain from the seventeenth to the nineteenth centuries. Appearing on many historical maps, the name comes from the German and means "a place with a beautiful view". In the popularized form Šenýgl, the name is still used locally. [Ref: Minor Planet Circ. 56962]

Orbit

Orbit type: Main Belt

Note: WebGL enabled browser required.

epoch2024-03-31.0
epoch JD2460400.5
perihelion date2024-01-23.59396
perihelion JD2460333.09396
argument of perihelion (°)44.58074
ascending node (°)170.39121
inclination (°)5.03317
eccentricity0.1464916
perihelion distance (AU)2.2604992
Tisserand w.r.t. Jupiter3.4
ΔV w.r.t. Earth (km/sec)9.6
semimajor axis (AU)2.6484791
mean anomaly (°)15.41373
mean daily motion (°/day)0.22866990
aphelion distance (AU)3.036
period (years)4.31
P-vector [x]-0.81898098
P-vector [y]-0.54792508
P-vector [z]-0.17043552
Q-vector [x]0.57363377
Q-vector [y]-0.77418688
Q-vector [z]-0.26754246
absolute magnitude15.58
phase slope0.15
uncertainty0
referenceMPEC 2024-D82
observations used1062
oppositions21
arc length (days)11793
first opposition used1991
last opposition used2024
residual rms (arc-secs)0.74
perturbers coarse indicatorM-v
perturbers precise indicator003Ek
first observation date used1991-11-01.0
last observation date used2024-02-14.0
computer nameMPCLINUX
JD of orbit computation2456760.661388
perihelion JD uncertainty (days)7.8032E-05
argument of perihelion uncertainty (°)5.0648E-05
ascending node uncertainty (°)4.8277E-05
inclination uncertainty (°)5.4667E-06
eccentricity uncertainty 4.9781E-08
perihelion distance uncertainty (AU)1.2819E-07
Minimum Orbit Intersection Distances (in AU)
for orbit epoch: 2460400.5, reference: E2024-D82
Mercury1.81527
Venus1.53805
Earth1.25767
Mars0.649
Jupiter1.92882
Saturn6.11555
Uranus15.9997
Neptune26.788

Observations

1085 total observations over interval: 1991 11 01.38682 – 2024 02 14.660917
These data are available for download (format description).

Date (UT) J2000 RA J2000 Dec Magn Location Ref
1991 11 01.38682 02 43 26.35 +09 52 05.3 21.2 V 691 – Steward Observatory, Kitt Peak-Spacewatch MPS 78263
1991 11 01.40761 02 43 25.20 +09 51 58.6 21.3 V 691 – Steward Observatory, Kitt Peak-Spacewatch MPS 78263
1991 11 01.42829 02 43 24.15 +09 51 53.1 21.7 V 691 – Steward Observatory, Kitt Peak-Spacewatch MPS 78263
1998 05 23.33432 15 29 42.04 -10 29 44.0 18.4 R 699 – Lowell Observatory-LONEOS MPS 1470
1998 05 23.34851 15 29 41.28 -10 29 40.2   699 – Lowell Observatory-LONEOS MPS 1470
1998 05 23.36340 15 29 40.51 -10 29 38.1   699 – Lowell Observatory-LONEOS MPS 1470
1998 05 24.25005 15 28 57.62 -10 26 37.2 18.3   704 – Lincoln Laboratory ETS, New Mexico MPS 54304
1998 05 24.26968 15 28 56.67 -10 26 33.2 18.3   704 – Lincoln Laboratory ETS, New Mexico MPS 54304
1998 05 24.28928 15 28 55.51 -10 26 28.5 18.5   704 – Lincoln Laboratory ETS, New Mexico MPS 54304
1998 05 24.30903 15 28 54.67 -10 26 23.8 18.5   704 – Lincoln Laboratory ETS, New Mexico MPS 54304
1998 05 24.32094 15 28 54.05 -10 26 23.4 18.1 R 699 – Lowell Observatory-LONEOS MPS 1470
1998 05 24.32891 15 28 53.64 -10 26 19.3 18.6   704 – Lincoln Laboratory ETS, New Mexico MPS 54304
1998 05 24.33513 15 28 53.42 -10 26 18.1   699 – Lowell Observatory-LONEOS MPS 1470
1998 05 24.35001 15 28 52.70 -10 26 16.4   699 – Lowell Observatory-LONEOS MPS 1470
1999 09 05.43187 23 45 31.07 -01 37 37.3 20.0 V 691 – Steward Observatory, Kitt Peak-Spacewatch MPS 55849
1999 09 05.45310 23 45 30.08 -01 37 45.7 19.9 V 691 – Steward Observatory, Kitt Peak-Spacewatch MPS 55849
1999 09 05.47423 23 45 29.09 -01 37 53.9 20.0 V 691 – Steward Observatory, Kitt Peak-Spacewatch MPS 55849
2002 01 12.46309 12 19 49.94 -03 07 31.8 19.5   704 – Lincoln Laboratory ETS, New Mexico MPS 55849
2002 01 12.47877 12 19 50.63 -03 07 34.0 20.2   704 – Lincoln Laboratory ETS, New Mexico MPS 55849
2002 01 12.49412 12 19 51.20 -03 07 39.0 20.4   704 – Lincoln Laboratory ETS, New Mexico MPS 55849
2002 01 12.52492 12 19 52.62 -03 07 44.6 20.3   704 – Lincoln Laboratory ETS, New Mexico MPS 55849
2002 01 14.52487 12 21 17.70 -03 13 35.7 20.7   608 – Haleakala-AMOS MPS 55849
2002 01 14.53588 12 21 18.16 -03 13 37.8 20.2   608 – Haleakala-AMOS MPS 55849
2002 01 14.54651 12 21 18.56 -03 13 39.8 20.5   608 – Haleakala-AMOS MPS 55849
2002 02 20.31115 12 30 18.66 -02 50 56.9 18.8   704 – Lincoln Laboratory ETS, New Mexico MPS 55849
2002 02 20.32505 12 30 18.29 -02 50 53.2 19.1   704 – Lincoln Laboratory ETS, New Mexico MPS 55849
2002 02 20.33889 12 30 18.10 -02 50 49.1 19.5   704 – Lincoln Laboratory ETS, New Mexico MPS 55849
2002 02 20.35283 12 30 17.84 -02 50 45.7 19.6   704 – Lincoln Laboratory ETS, New Mexico MPS 55849
2002 02 20.36724 12 30 17.60 -02 50 41.4 19.0   704 – Lincoln Laboratory ETS, New Mexico MPS 55849
2002 03 06.62326 12 24 16.99 -01 29 58.9 17.9 V 342 – Shishikui MPS 63254
2002 03 06.64687 12 24 16.14 -01 29 48.2   342 – Shishikui MPS 63254
2002 03 06.68576 12 24 14.56 -01 29 32.6   342 – Shishikui MPS 63254
2002 03 09.38205 12 22 35.57 -01 10 32.7 18.6   704 – Lincoln Laboratory ETS, New Mexico MPS 55849
2002 03 09.40325 12 22 34.74 -01 10 23.6 18.7   704 – Lincoln Laboratory ETS, New Mexico MPS 55849
2002 03 09.42448 12 22 33.98 -01 10 14.0 19.3   704 – Lincoln Laboratory ETS, New Mexico MPS 55849
2002 03 09.44607 12 22 33.03 -01 10 04.3 19.0   704 – Lincoln Laboratory ETS, New Mexico MPS 55849
2002 03 09.46775 12 22 32.15 -01 09 55.0 18.3   704 – Lincoln Laboratory ETS, New Mexico MPS 55849
2002 03 12.32472 12 20 38.93 -00 48 50.2 18.1   704 – Lincoln Laboratory ETS, New Mexico MPS 55849
2002 03 12.33832 12 20 38.32 -00 48 44.2 18.6   704 – Lincoln Laboratory ETS, New Mexico MPS 55849
2002 03 12.35190 12 20 37.78 -00 48 37.6 18.7   704 – Lincoln Laboratory ETS, New Mexico MPS 55849
2002 03 14.33475 12 19 14.77 -00 33 30.0 18.0 R 699 – Lowell Observatory-LONEOS MPS 55849
2002 03 14.36019 12 19 13.63 -00 33 17.9   699 – Lowell Observatory-LONEOS MPS 55849
2002 03 14.37574 12 19 12.92 -00 33 11.2   699 – Lowell Observatory-LONEOS MPS 55849
2002 03 14.39128 12 19 12.21 -00 33 03.5   699 – Lowell Observatory-LONEOS MPS 55849
2002 03 15.26990 12 18 34.74 -00 26 14.8 17.6   644 – Palomar Mountain/NEAT MPS 55849
2002 03 15.33970 12 18 31.54 -00 25 41.9 17.9   644 – Palomar Mountain/NEAT MPS 55849
2002 03 15.40227 12 18 28.68 -00 25 12.6 18.0   644 – Palomar Mountain/NEAT MPS 55849
2002 03 16.31105 12 17 48.99 -00 18 04.6 18.4   704 – Lincoln Laboratory ETS, New Mexico MPS 55849
2002 03 16.32463 12 17 48.35 -00 17 58.5 18.6   704 – Lincoln Laboratory ETS, New Mexico MPS 55849
2002 03 16.33818 12 17 47.72 -00 17 52.1 18.7   704 – Lincoln Laboratory ETS, New Mexico MPS 55849
2002 03 16.35173 12 17 47.10 -00 17 46.2 18.8   704 – Lincoln Laboratory ETS, New Mexico MPS 55849
2002 03 16.36526 12 17 46.47 -00 17 39.6 18.6   704 – Lincoln Laboratory ETS, New Mexico MPS 55849
2002 03 16.65380 12 17 33.89 -00 15 26.4 19.0 R 344 – Bohyunsan Optical Astronomy Observatory MPS 52829
2002 03 16.66312 12 17 33.46 -00 15 22.1 19.1 R 344 – Bohyunsan Optical Astronomy Observatory MPS 52829
2002 03 16.99191 12 17 18.87 -00 12 44.9 17.6 R 046 – Klet Observatory, Ceske Budejovice MPS 52829
2002 03 16.99405 12 17 18.77 -00 12 44.0   046 – Klet Observatory, Ceske Budejovice MPS 52829
2002 03 16.99541 12 17 18.69 -00 12 44.0   046 – Klet Observatory, Ceske Budejovice MPS 52829
2002 03 16.99771 12 17 18.56 -00 12 42.4   046 – Klet Observatory, Ceske Budejovice MPS 52829
2002 03 16.99956 12 17 18.54 -00 12 41.9   046 – Klet Observatory, Ceske Budejovice MPS 52829
2002 03 17.27600 12 17 06.32 -00 10 28.6 18.8 V 691 – Steward Observatory, Kitt Peak-Spacewatch MPS 55849
2002 03 17.31936 12 17 04.28 -00 10 08.5 18.7 V 691 – Steward Observatory, Kitt Peak-Spacewatch MPS 55849
2002 03 17.34060 12 17 03.29 -00 09 58.5 18.7 V 691 – Steward Observatory, Kitt Peak-Spacewatch MPS 55849
2002 03 17.50584 12 16 56.12 -00 08 33.7 18.8   422 – Loomberah MPS 52829
2002 03 17.50852 12 16 56.00 -00 08 31.7 18.7   422 – Loomberah MPS 52829
2002 03 17.51037 12 16 55.94 -00 08 31.2 18.8   422 – Loomberah MPS 52829
2002 03 18.34681 12 16 18.07 -00 01 59.3 18.3   704 – Lincoln Laboratory ETS, New Mexico MPS 55849
2002 03 18.36347 12 16 17.27 -00 01 51.1 18.7   704 – Lincoln Laboratory ETS, New Mexico MPS 55849
2002 03 18.38025 12 16 16.48 -00 01 43.2 18.7   704 – Lincoln Laboratory ETS, New Mexico MPS 55849
2002 03 18.39628 12 16 15.78 -00 01 37.2 19.4   704 – Lincoln Laboratory ETS, New Mexico MPS 55849
2002 03 18.41707 12 16 14.73 -00 01 25.8 18.8   704 – Lincoln Laboratory ETS, New Mexico MPS 55849
2002 03 18.95888 12 15 50.45 +00 02 52.6 17.8 R 246 – Klet Observatory-KLENOT MPS 52829
2002 03 18.96080 12 15 50.43 +00 02 54.0   246 – Klet Observatory-KLENOT MPS 52829
2002 03 18.96293 12 15 50.19 +00 02 54.5   246 – Klet Observatory-KLENOT MPS 52829
2002 03 18.96490 12 15 50.14 +00 02 55.3   246 – Klet Observatory-KLENOT MPS 52829
2002 03 18.96682 12 15 50.08 +00 02 56.0   246 – Klet Observatory-KLENOT MPS 52829
2002 03 18.96862 12 15 50.02 +00 02 57.2   246 – Klet Observatory-KLENOT MPS 52829
2002 03 20.35130 12 14 46.66 +00 14 02.6 18.4   704 – Lincoln Laboratory ETS, New Mexico MPS 52829
2002 03 20.36324 12 14 46.08 +00 14 08.0 18.6   704 – Lincoln Laboratory ETS, New Mexico MPS 52829
2002 03 20.37506 12 14 45.49 +00 14 14.0 18.7   704 – Lincoln Laboratory ETS, New Mexico MPS 52829
2002 03 20.38727 12 14 44.92 +00 14 19.4 18.8   704 – Lincoln Laboratory ETS, New Mexico MPS 52829
2002 03 20.40055 12 14 44.27 +00 14 26.2 18.6   704 – Lincoln Laboratory ETS, New Mexico MPS 52829
2002 03 20.42897 12 14 42.97 +00 14 39.7 17.8   644 – Palomar Mountain/NEAT MPS 52829
2002 03 20.44224 12 14 42.34 +00 14 46.3 17.8   644 – Palomar Mountain/NEAT MPS 52829
2002 03 20.45557 12 14 41.69 +00 14 52.5 17.9   644 – Palomar Mountain/NEAT MPS 52829
